Tracking 25686 objects as of 25-May-2022
HD Live streaming from Space Station
objects crossing your sky now

ION SCV-003

Track ION SCV-003 now!
10-day predictions


NORAD ID: 48912
Int'l Code: 2021-059AK
Perigee: 530.0 km
Apogee: 541.0 km
Inclination: 97.5 °
Period: 95.2 minutes
Semi major axis: 6906 km
RCS: Unknown
Launch date: June 30, 2021
Source: Italy (IT)
Launch site: AIR FORCE EASTERN TEST RANGE (AFETR)
aabbcc
Your satellite tracking list
Your tracking list is empty




NASA's NSSDC Master Catalog

Two Line Element Set (TLE):
1 48912U 21059AK  22145.30531026  .00003700  00000-0  21569-3 0  9991
2 48912  97.5419 274.3504 0007971 139.2260 220.9569 15.12578510 50400
Source of the keplerian elements: AFSPC